This is the latest recevied weather packets stored in our database for station/object CE3MXM-13. If no packets are shown the sender has not sent any weather packets the latest 10 day(s).
| Time | Temp. | Humidity | Pressure | Rain* | Wind** | Luminosity | Snow |
|---|---|---|---|---|---|---|---|
| 1777736619 | 21.11° C | 53% | 1011.9 hPa | - | - | - | - |
| 1777736319 | 21.11° C | 55% | 1012 hPa | - | - | - | - |
| 1777736019 | 21.11° C | 56% | 1012 hPa | - | - | - | - |
| 1777735719 | 21.11° C | 55% | 1011.9 hPa | - | - | - | - |
| 1777735418 | 20.56° C | 57% | 1011.9 hPa | - | - | - | - |
| 1777735118 | 20° C | 60% | 1012 hPa | - | - | - | - |
| 1777734818 | 19.44° C | 64% | 1012.1 hPa | - | - | - | - |
| 1777734518 | 17.78° C | 73% | 1012.2 hPa | - | - | - | - |
| 1777734218 | 16.11° C | 87% | 1012.1 hPa | - | - | - | - |
| 1777733918 | 15.56° C | 88% | 1012.1 hPa | - | - | - | - |
| 1777733618 | 15.56° C | 88% | 1012.2 hPa | - | - | - | - |
| 1777733318 | 15° C | 93% | 1012 hPa | - | - | - | - |
| 1777733017 | 14.44° C | 93% | 1012.3 hPa | - | - | - | - |
| 1777732717 | 14.44° C | 92% | 1012.4 hPa | - | - | - | - |
| 1777732418 | 14.44° C | 93% | 1012.3 hPa | - | - | - | - |
| 1777732117 | 14.44° C | 96% | 1012.4 hPa | - | - | - | - |
| 1777731817 | 13.89° C | 97% | 1012.3 hPa | - | - | - | - |
| 1777731517 | 13.89° C | 98% | 1012.5 hPa | - | - | - | - |
| 1777731217 | 13.33° C | 98% | 1012.5 hPa | - | - | - | - |
| 1777730917 | 13.33° C | 98% | 1012.4 hPa | - | - | - | - |
| 1777730617 | 13.33° C | 99% | 1012.5 hPa | - | - | - | - |
| 1777730317 | 12.78° C | 99% | 1012.5 hPa | - | - | - | - |
| 1777730016 | 12.78° C | 99% | 1012.4 hPa | - | - | - | - |
| 1777729716 | 12.22° C | 99% | 1012.6 hPa | - | - | - | - |
| 1777729416 | 12.22° C | 99% | 1012.5 hPa | - | - | - | - |
* Rain since midnight (hover to see other rain measurements)
** Current wind speed in m/s (hover to see current wind gust speed)